Regional Weather Roundup
Issued by NWS

Home | Current Version | Previous Version | Text Only | Print | Product List | Glossary On
Versions: 1 2 3 4 5 6 7 8 9 10 11 12 13 14 15 16 17 18 19 20 21 22 23 24 25 26 27 28 29 30 31 32 33 34 35 36 37 38 39 40 41 42 43 44 45 46 47 48 49 50
000
ASUS45 KCYS 281510
RWRWY

WYOMING REGIONAL WEATHER ROUNDUP
NATIONAL WEATHER SERVICE CHEYENNE WY
900 AM MDT THU MAY 28 2015

NOTE:  "FAIR" INDICATES FEW OR NO CLOUDS BELOW 12,000 FEET
WITH NO SIGNIFICANT WEATHER AND/OR OBSTRUCTIONS TO VISIBILITY.

WYZ001-281600-
YELLOWSTONE NATIONAL PARK

CITY           SKY/WX    TMP DP  RH WIND       PRES   REMARKS
LK YELLOWSTONE   N/A     33  32  96 CALM      30.19S
W YELLOWSTONE  NOT AVBL

$$
WYZ002>013-054>058-071-098>099-281600-
NORTHERN WYOMING

CITY           SKY/WX    TMP DP  RH WIND       PRES   REMARKS
JACKSON        CLOUDY    45  43  93 CALM      30.16R
CODY           CLOUDY    50  45  81 SW5       30.07S
GREYBULL       FAIR      59  49  69 CALM      30.03R
WORLAND        CLOUDY    57  48  72 CALM      30.03R
SHERIDAN       LGT RAIN  53  49  86 W8        30.03R
BUFFALO          N/A     56  47  71 N12       30.05R
GILLETTE       PTSUNNY   59  50  72 N12       30.01S
HULETT         FAIR      59  54  82 SW5       30.02R
NEWCASTLE      FAIR      57  50  77 W6        30.02S

$$
WYZ014>020-022>026-101>103-281600-
CENTRAL WYOMING

CITY           SKY/WX    TMP DP  RH WIND       PRES   REMARKS
BIG PINEY      PTSUNNY   47  39  74 CALM      30.18R
PINEDALE       FAIR      46  37  71 CALM      30.17F
DUBOIS         FAIR      48  34  57 N15       30.11F
LANDER         FAIR      57  41  55 NE3       30.07R
RIVERTON       FAIR      57  41  55 NW7       30.08R
CASPER         CLOUDY    55  46  71 SW10      30.06R
DOUGLAS        PTSUNNY   57  48  72 SE5       30.04S

$$
WYZ021-027>030-104>119-281600-
SOUTHERN WYOMING

CITY           SKY/WX    TMP DP  RH WIND       PRES   REMARKS
EVANSTON       FAIR      41  39  93 S10       30.20F
KEMMERER       CLOUDY    45  37  76 SW6       30.20S
FORT BRIDGER   LGT RAIN  45  41  87 W17G28    30.23R
ROCK SPRINGS   FAIR      50  41  71 W13       30.18R
DIXON          CLOUDY    52  45  77 SW7       30.21R
RAWLINS        CLOUDY    49  41  74 SW12      30.16R
SARATOGA       DRIZZLE   45  43  93 W8        30.18S
LARAMIE        FAIR      53  39  59 W12G22    30.15R
CHEYENNE       FAIR      59  44  57 SW3       30.09F
TORRINGTON     FAIR      64  53  67 W7        30.01S
PINE BLUFFS    FAIR      59  46  63 W6        30.07S

$$


USA.gov is the U.S. government's official web portal to all federal, state and local government web resources and services.